Le nostre stazioni meteo in Italia

Pubblicità
Il mio iltempo24.it
Bourg-St-Maurice, Francia (7497): Temperatura & dewpoint: 09.09.2019 21:00:00 - 15.09.2019 21:00:00 (CEST)Bourg-St-Maurice, Francia (7497): Temperatura -20cm & Temperatura -100cm: 09.09.2019 21:00:00 - 15.09.2019 21:00:00 (CEST)Bourg-St-Maurice, Francia (7497): velocità del vento & gusts: 09.09.2019 21:00:00 - 15.09.2019 21:00:00 (CEST)Bourg-St-Maurice, Francia (7497): direzione del vento: 09.09.2019 21:00:00 - 15.09.2019 21:00:00 (CEST)Bourg-St-Maurice, Francia (7497): ore di luce: 09.09.2019 21:00:00 - 15.09.2019 21:00:00 (CEST)Bourg-St-Maurice, Francia (7497): precipitazioni: 09.09.2019 21:00:00 - 15.09.2019 21:00:00 (CEST)
Data & Tempo tt [°C] td [°C] tt -20cm [°C] tt -100cm [°C] ff [km/h] ff [kn] fx [km/h] fx [kn] dd sd [min] rr [mm]
15.09.2019 21:00:00 - - - - - - - - - - -
15.09.2019 20:00:00 22,4 11,2 21,8 19,3 6 3 11 6 ONO 0 0,0
15.09.2019 19:00:00 24,8 11,0 21,8 19,3 3 2 11 6 NNE 11 0,0
15.09.2019 18:00:00 27,4 11,0 21,6 19,3 6 3 22 12 OSO 60 0,0
15.09.2019 17:00:00 30,4 10,4 21,4 19,3 11 6 29 15 SSO 60 0,0
15.09.2019 16:00:00 30,7 10,6 21,0 19,3 7 4 24 13 S 58 0,0
15.09.2019 15:00:00 30,4 10,9 20,7 19,3 9 5 22 12 S 60 0,0
15.09.2019 14:00:00 29,6 11,6 20,3 19,2 7 4 19 11 SSO 60 0,0
15.09.2019 13:00:00 28,2 12,1 20,1 19,3 5 3 13 7 S 60 0,0
15.09.2019 12:00:00 25,4 12,6 19,9 19,2 5 3 13 7 S 60 0,0
15.09.2019 11:00:00 23,2 12,8 19,9 19,2 2 1 7 4 SSE 60 0,0
15.09.2019 10:00:00 19,8 12,5 20,0 19,3 3 2 7 4 SSE 60 0,0
15.09.2019 09:00:00 16,2 12,4 20,1 19,2 2 1 5 3 ENE 38 0,0
15.09.2019 08:00:00 14,0 11,7 20,2 19,2 0 0 5 3 N 0 0,0
15.09.2019 07:00:00 14,1 11,4 20,4 19,2 0 0 12 7 N 0 0,0
15.09.2019 06:00:00 14,9 12,0 20,5 19,2 7 4 11 6 NO 0 0,0
15.09.2019 05:00:00 14,6 12,1 20,6 19,2 0 0 6 4 N 0 0,0
15.09.2019 04:00:00 15,4 12,5 20,7 19,2 3 1 7 4 NNO 0 0,0
15.09.2019 03:00:00 15,5 12,4 20,9 19,2 2 1 4 2 NNO 0 0,0
15.09.2019 02:00:00 16,2 12,6 20,9 19,2 0 0 7 4 N 0 0,0
15.09.2019 01:00:00 16,9 13,0 21,0 19,2 3 2 6 4 NNO 0 0,0
15.09.2019 00:00:00 17,4 12,7 21,1 19,2 2 1 6 4 NNE 0 0,0
14.09.2019 23:00:00 18,2 13,3 21,2 19,2 4 2 8 4 ONO 0 0,0
14.09.2019 22:00:00 19,6 13,1 21,2 19,2 4 2 8 4 N 0 0,0
14.09.2019 21:00:00 20,5 13,2 21,2 19,2 4 2 10 5 ONO 0 0,0
14.09.2019 20:00:00 22,5 13,0 21,1 19,2 4 2 16 9 OSO 0 0,0
14.09.2019 19:00:00 24,5 13,4 21,0 19,2 4 2 12 6 OSO 12 0,0
14.09.2019 18:00:00 27,3 13,6 20,9 19,2 5 3 23 12 OSO 57 0,0
14.09.2019 17:00:00 28,4 11,9 20,6 19,2 8 5 27 15 S 60 0,0
14.09.2019 16:00:00 29,2 11,7 20,2 19,2 9 5 27 15 SSE 60 0,0
14.09.2019 15:00:00 29,5 11,5 19,8 19,2 8 5 19 10 SSO 60 0,0
14.09.2019 14:00:00 28,6 9,3 19,5 19,2 9 5 20 11 SSO 60 0,0
14.09.2019 13:00:00 27,2 10,8 19,3 19,2 7 4 16 9 SSO 60 0,0
14.09.2019 12:00:00 24,6 10,5 19,1 19,2 5 3 10 6 S 60 0,0
14.09.2019 11:00:00 22,4 9,5 19,1 19,2 3 2 6 4 ESE 60 0,0
14.09.2019 10:00:00 18,7 10,5 19,2 19,2 4 2 8 5 NE 60 0,0
14.09.2019 09:00:00 14,1 10,1 19,3 19,2 0 0 9 5 N 44 0,0
14.09.2019 08:00:00 12,2 9,8 19,5 19,2 4 2 6 4 N 0 0,0
14.09.2019 07:00:00 12,5 9,9 19,6 19,2 0 0 11 6 N 0 0,0
14.09.2019 06:00:00 12,2 9,9 19,7 19,2 5 3 6 4 N 0 0,0
14.09.2019 05:00:00 12,9 10,4 19,9 19,2 0 0 7 4 N 0 0,0
14.09.2019 04:00:00 13,6 10,6 20,0 19,2 3 2 7 4 NO 0 0,0
14.09.2019 03:00:00 14,2 10,8 20,1 19,2 4 2 7 4 NNE 0 0,0
14.09.2019 02:00:00 15,0 11,0 20,2 19,2 4 2 11 6 SO 0 0,0
14.09.2019 01:00:00 16,7 11,2 20,3 19,2 7 4 14 8 NO 0 0,0
14.09.2019 00:00:00 15,8 11,6 20,4 19,2 3 2 6 4 O 0 0,0
13.09.2019 23:00:00 17,0 11,5 20,5 19,2 0 0 6 4 N 0 0,0
13.09.2019 22:00:00 18,3 11,6 20,5 19,2 4 2 10 5 NNO 0 0,0
13.09.2019 21:00:00 19,2 12,0 20,5 19,2 5 3 10 5 ONO 0 0,0
13.09.2019 20:00:00 20,4 12,1 20,5 19,2 4 2 18 10 O 0 0,0
13.09.2019 19:00:00 22,7 11,7 20,4 19,2 6 4 15 8 O 15 0,0
13.09.2019 18:00:00 26,8 11,3 20,2 19,2 8 4 26 14 OSO 60 0,0
13.09.2019 17:00:00 28,6 10,7 20,0 19,2 10 5 29 16 SSO 60 0,0
13.09.2019 16:00:00 29,3 11,4 19,6 19,2 9 5 19 11 SSO 60 0,0
13.09.2019 15:00:00 29,6 10,2 19,1 19,2 10 5 20 11 SSO 60 0,0
13.09.2019 14:00:00 28,1 9,4 18,8 19,2 6 3 20 11 S 60 0,0
13.09.2019 13:00:00 26,5 9,4 18,5 19,2 6 4 16 9 S 60 0,0
13.09.2019 12:00:00 24,4 8,4 18,4 19,2 4 2 10 5 S 60 0,0
13.09.2019 11:00:00 21,0 9,3 18,3 19,2 5 3 9 5 SSE 60 0,0
13.09.2019 10:00:00 18,0 9,6 18,4 19,2 3 2 6 4 ENE 60 0,0
13.09.2019 09:00:00 14,3 9,7 18,6 19,2 4 2 8 4 ENE 48 0,0
13.09.2019 08:00:00 10,9 9,2 18,7 19,2 0 0 7 4 N 0 0,0
13.09.2019 07:00:00 11,0 9,3 18,9 19,2 2 1 5 3 N 0 0,0
13.09.2019 06:00:00 11,5 9,7 19,0 19,2 3 1 8 4 N 0 0,0
13.09.2019 05:00:00 11,7 9,8 19,1 19,2 0 0 7 4 N 0 0,0
13.09.2019 04:00:00 11,9 10,0 19,2 19,2 5 3 6 3 NNO 0 0,0
13.09.2019 03:00:00 12,5 10,2 19,4 19,3 3 1 6 4 SSO 0 0,0
13.09.2019 02:00:00 12,9 10,4 19,5 19,2 3 1 3 2 NNO 0 0,0
13.09.2019 01:00:00 13,7 10,7 19,6 19,2 2 1 5 3 NO 0 0,0
13.09.2019 00:00:00 14,6 11,0 19,7 19,2 0 0 6 4 N 0 0,0
12.09.2019 23:00:00 15,2 11,0 19,8 19,3 0 0 5 3 N 0 0,0
12.09.2019 22:00:00 16,4 11,1 19,8 19,3 2 1 8 4 NNO 0 0,0
12.09.2019 21:00:00 17,4 11,7 19,8 19,3 2 1 9 5 ONO 0 0,0
12.09.2019 20:00:00 19,0 11,6 19,7 19,3 3 2 11 6 O 0 0,0
12.09.2019 19:00:00 20,6 11,8 19,7 19,3 6 3 14 7 O 17 0,0
12.09.2019 18:00:00 24,8 11,4 19,5 19,3 8 4 21 11 SO 60 0,0
12.09.2019 17:00:00 26,4 10,9 19,2 19,3 8 5 22 12 S 60 0,0
12.09.2019 16:00:00 26,4 10,5 18,9 19,3 11 6 24 13 S 60 0,0
12.09.2019 15:00:00 26,5 8,9 18,4 19,3 8 5 22 12 S 60 0,0
12.09.2019 14:00:00 25,3 8,7 18,1 19,3 7 4 20 11 SSO 60 0,0
12.09.2019 13:00:00 23,7 7,7 17,8 19,3 8 4 17 9 S 60 0,0
12.09.2019 12:00:00 21,7 8,2 17,7 19,3 8 4 15 8 S 60 0,0
12.09.2019 11:00:00 19,4 7,8 17,7 19,3 3 2 8 4 ESE 60 0,0
12.09.2019 10:00:00 15,4 8,2 17,8 19,3 5 3 8 4 ENE 60 0,0
12.09.2019 09:00:00 11,1 8,1 17,9 19,3 2 1 6 4 SSO 52 0,0
12.09.2019 08:00:00 9,0 7,3 18,1 19,3 3 1 5 3 N 0 0,0
12.09.2019 07:00:00 9,1 7,4 18,2 19,4 2 1 5 3 N 0 0,0
12.09.2019 06:00:00 9,3 7,6 18,4 19,4 2 1 6 4 NO 0 0,0
12.09.2019 05:00:00 9,6 7,7 18,5 19,4 2 1 5 3 NNE 0 0,0
12.09.2019 04:00:00 10,3 8,2 18,7 19,4 0 0 5 3 N 0 0,0
12.09.2019 03:00:00 10,6 8,4 18,8 19,4 2 1 5 3 NO 0 0,0
12.09.2019 02:00:00 11,3 8,9 18,9 19,4 0 0 9 5 N 0 0,0
12.09.2019 01:00:00 11,9 8,7 19,0 19,4 0 0 5 3 N 0 0,0
12.09.2019 00:00:00 12,8 9,1 19,1 19,4 3 1 7 4 NO 0 0,0
11.09.2019 23:00:00 13,7 9,1 19,2 19,4 0 0 8 4 N 0 0,0
11.09.2019 22:00:00 14,6 9,2 19,2 19,4 4 2 9 5 ONO 0 0,0
11.09.2019 21:00:00 15,5 9,2 19,2 19,4 4 2 9 5 ONO 0 0,0
11.09.2019 20:00:00 17,1 9,8 19,2 19,4 4 2 10 6 O 0 0,0
11.09.2019 19:00:00 18,9 9,4 19,1 19,5 5 3 18 10 O 18 0,0
11.09.2019 18:00:00 22,4 9,5 18,9 19,5 4 2 23 12 O 52 0,0
11.09.2019 17:00:00 22,2 9,4 18,7 19,5 9 5 23 12 S 26 0,0
11.09.2019 16:00:00 23,0 8,7 18,3 19,5 8 5 28 15 S 40 0,0
11.09.2019 15:00:00 23,0 9,0 18,0 19,5 8 4 20 11 SSO 46 0,0
11.09.2019 14:00:00 23,1 7,2 17,7 19,5 8 4 17 9 S 45 0,0
11.09.2019 13:00:00 21,0 6,5 17,5 19,5 6 3 13 7 SSO 38 0,0
11.09.2019 12:00:00 19,9 6,2 17,4 19,5 5 3 12 6 S 56 0,0
11.09.2019 11:00:00 16,8 7,7 17,4 19,6 4 2 8 4 E 35 0,0
11.09.2019 10:00:00 13,4 8,2 17,3 19,6 3 2 7 4 N 2 0,0
11.09.2019 09:00:00 11,9 8,2 17,4 19,6 0 0 6 4 N 0 0,0
11.09.2019 08:00:00 11,1 7,8 17,5 19,6 5 3 13 7 OSO 0 0,0
11.09.2019 07:00:00 11,7 7,6 17,6 19,6 8 4 18 10 O 0 0,0
11.09.2019 06:00:00 11,0 7,9 17,6 19,6 6 3 11 6 OSO 0 0,0
11.09.2019 05:00:00 11,6 7,9 17,7 19,6 0 0 8 5 N 0 0,0
11.09.2019 04:00:00 11,4 7,9 17,8 19,6 5 3 10 5 NO 0 0,0
11.09.2019 03:00:00 11,3 8,2 17,9 19,6 2 1 5 3 S 0 0,0
11.09.2019 02:00:00 11,4 7,9 17,9 19,6 0 0 5 3 N 0 0,0
11.09.2019 01:00:00 11,5 7,6 18,0 19,6 0 0 6 4 N 0 0,0
11.09.2019 00:00:00 11,4 7,7 18,1 19,7 0 0 6 3 N 0 0,0
10.09.2019 23:00:00 11,4 6,9 18,2 19,7 2 1 16 8 SO 0 0,0
10.09.2019 22:00:00 12,3 7,6 18,2 19,7 7 4 18 10 SO 0 0,0
10.09.2019 21:00:00 13,3 7,7 18,2 19,7 9 5 23 12 SO 0 0,0
10.09.2019 20:00:00 17,3 3,9 18,2 19,7 8 4 40 22 ENE 31 0,0
10.09.2019 19:00:00 17,8 4,0 18,1 19,7 18 10 41 22 NE 0 0,0
10.09.2019 18:00:00 18,9 3,1 18,0 19,7 17 9 48 26 NE 0 0,0
10.09.2019 17:00:00 19,2 2,9 17,9 19,7 16 9 32 17 NE 0 0,0
10.09.2019 16:00:00 19,7 3,0 17,8 19,7 11 6 36 19 NNE 0 0,0
10.09.2019 15:00:00 19,3 3,4 17,7 19,8 13 7 38 20 NE 0 0,0
10.09.2019 14:00:00 18,5 3,5 17,5 19,8 14 8 38 20 NE 0 0,0
10.09.2019 13:00:00 19,2 3,8 17,5 19,8 9 5 32 17 NNE 0 0,0
10.09.2019 12:00:00 18,6 4,0 17,4 19,8 9 5 41 22 NE 0 0,0
10.09.2019 11:00:00 16,8 3,5 17,4 19,8 18 10 42 23 ENE 0 0,0
10.09.2019 10:00:00 14,5 5,6 17,5 19,8 4 2 14 8 S 27 0,0
10.09.2019 09:00:00 10,8 6,9 17,6 19,9 5 3 14 8 NNE 0 0,0
10.09.2019 08:00:00 9,1 6,4 17,7 19,9 3 1 6 3 SSO 13 0,0
10.09.2019 07:00:00 8,5 6,1 17,8 19,9 4 2 11 6 SSO 0 0,0
10.09.2019 06:00:00 8,4 6,2 17,9 19,9 5 3 10 5 SO 0 0,0
10.09.2019 05:00:00 8,9 6,2 18,1 19,9 3 2 7 4 NNO 0 0,0
10.09.2019 04:00:00 9,2 6,5 18,2 19,9 0 0 5 3 N 0 0,0
10.09.2019 03:00:00 10,3 6,6 18,3 19,9 0 0 13 7 N 0 0,0
10.09.2019 02:00:00 10,4 6,3 18,4 19,9 2 1 17 9 OSO 0 0,0
10.09.2019 01:00:00 10,3 6,4 18,5 19,9 3 2 9 5 N 0 0,0
10.09.2019 00:00:00 10,6 6,3 18,6 19,9 6 3 11 6 ONO 0 0,0
09.09.2019 23:00:00 10,4 6,5 18,7 20,0 0 0 4 2 N 0 0,0
09.09.2019 22:00:00 10,6 6,0 18,8 20,0 4 2 8 5 ONO 0 0,0
09.09.2019 21:00:00 11,4 6,7 18,9 20,0 6 3 11 6 O 0 0,0

tt = Temperatura
td = dewpoint
tt -20cm = Temperatura -20cm
tt -100cm = Temperatura -100cm
ff = velocità del vento
fx = gusts
dd = direzione del vento
sd = ore di luce
rr = precipitazioni

Stazioni seguenti

WeatherPro
AMSI
MeteoEarth